(511441) = 2014 JU26

Discovered at Haleakala on 2014-02-28 by Pan-STARRS 1.

Orbit

Orbit type: Main Belt

Note: WebGL enabled browser required.

epoch2024-03-31.0
epoch JD2460400.5
perihelion date2019-07-30.71114
perihelion JD2458695.21114
argument of perihelion (°)82.67623
ascending node (°)175.35933
inclination (°)19.15254
eccentricity0.1642788
perihelion distance (AU)2.4167131
Tisserand w.r.t. Jupiter3.2
ΔV w.r.t. Earth (km/sec)11.4
semimajor axis (AU)2.8917695
mean anomaly (°)341.78759
mean daily motion (°/day)0.20042800
aphelion distance (AU)3.367
period (years)4.92
P-vector [x]-0.20286278
P-vector [y]-0.97678623
P-vector [z]-0.06881390
Q-vector [x]0.97884733
Q-vector [y]-0.20038187
Q-vector [z]-0.04129175
absolute magnitude16.52
phase slope0.15
uncertainty0
referenceMPEC 2024-F74
observations used233
oppositions12
arc length (days)7311
first opposition used2004
last opposition used2024
residual rms (arc-secs)0.76
perturbers coarse indicatorM-v
perturbers precise indicator003Ek
first observation date used2004-03-15.0
last observation date used2024-03-21.0
computer nameMPCLINUX
JD of orbit computation2458136.131867
perihelion JD uncertainty (days)8.8531E-05
argument of perihelion uncertainty (°)1.9038E-05
ascending node uncertainty (°)8.0902E-06
inclination uncertainty (°)4.6139E-06
eccentricity uncertainty 2.4505E-08
perihelion distance uncertainty (AU)7.2478E-08
Minimum Orbit Intersection Distances (in AU)
for orbit epoch: 2460400.5, reference: E2024-GF4
Mercury1.99161
Venus1.74438
Earth1.4929
Mars0.99376
Jupiter1.91237
Saturn5.92856
Uranus15.5181
Neptune26.6506

Observations

239 total observations over interval: 2004 03 15.47001 – 2024 03 21.627957
These data are available for download (format description).

Date (UT) J2000 RA J2000 Dec Magn Location Ref
2004 03 15.47001 14 06 54.94 -01 08 13.2 21.4 V 691 – Steward Observatory, Kitt Peak-Spacewatch MPS 626904
2004 03 15.49739 14 06 54.57 -01 07 54.0 20.9 V 691 – Steward Observatory, Kitt Peak-Spacewatch MPS 626904
2004 03 15.52364 14 06 54.23 -01 07 36.1 21.0 V 691 – Steward Observatory, Kitt Peak-Spacewatch MPS 626904
2005 08 30.26705 22 28 02.13 +00 29 49.7 19.8 R 644 – Palomar Mountain/NEAT MPS 626904
2005 08 30.29146 22 28 01.05 +00 29 33.1 19.4 R 644 – Palomar Mountain/NEAT MPS 626904
2005 08 30.31785 22 27 59.89 +00 29 15.1 19.5 R 644 – Palomar Mountain/NEAT MPS 626904
2009 03 24.42796 14 45 05.40 -00 11 23.2 20.5 V G96 – Mt. Lemmon Survey MPS 626904
2009 03 24.43612 14 45 05.29 -00 11 17.6 20.4 V G96 – Mt. Lemmon Survey MPS 626904
2009 03 24.44433 14 45 05.22 -00 11 11.8 20.2 V G96 – Mt. Lemmon Survey MPS 626904
2009 03 24.45249 14 45 05.11 -00 11 05.5 20.4 V G96 – Mt. Lemmon Survey MPS 626904
2010 06 10.569497 23 04 00.348 +05 20 55.32   C51 – WISE MPS 904596
2010 06 10.701801 23 04 06.701 +05 21 25.85   C51 – WISE MPS 904596
2010 06 10.966409 23 04 19.301 +05 22 27.05   C51 – WISE MPS 904596
2010 06 11.098713 23 04 25.630 +05 22 57.54   C51 – WISE MPS 904596
2010 06 11.164801 23 04 28.687 +05 23 13.24   C51 – WISE MPS 904596
2010 06 11.231016 23 04 31.889 +05 23 28.10   C51 – WISE MPS 904596
2010 06 11.297104 23 04 34.980 +05 23 42.97   C51 – WISE MPS 904596
2010 06 11.363192 23 04 38.033 +05 23 58.24   C51 – WISE MPS 904596
2010 06 11.363319 23 04 38.074 +05 23 58.67   C51 – WISE MPS 904596
2010 06 11.429409 23 04 41.126 +05 24 14.36   C51 – WISE MPS 904596
2010 06 11.561712 23 04 47.510 +05 24 43.06   C51 – WISE MPS 904596
2010 06 11.694016 23 04 53.676 +05 25 12.90   C51 – WISE MPS 904596
2010 06 11.826319 23 04 59.722 +05 25 44.98   C51 – WISE MPS 904596
2010 06 11.958624 23 05 05.935 +05 26 13.56   C51 – WISE MPS 904596
2010 08 29.18603 23 06 03.10 +01 13 24.1 21.0 R I41 – Palomar Mountain--ZTF MPS 1550448
2010 08 29.22977 23 06 01.28 +01 12 56.3 20.7 R I41 – Palomar Mountain--ZTF MPS 1550448
2014 02 28.59592 15 14 24.553 -04 47 11.56 21.2 w F51 – Pan-STARRS 1, Haleakala MPS 531587
2014 02 28.60818 15 14 25.032 -04 47 06.06 21.0 w F51 – Pan-STARRS 1, Haleakala MPS 531587
2014 02 28.62048 15 14 25.498 -04 47 00.34 21.0 w F51 – Pan-STARRS 1, Haleakala MPS 531587
2014 02 28.63271 15 14 25.979 -04 46 54.65 21.0 w F51 – Pan-STARRS 1, Haleakala MPS 531587
2014 04 21.41400 15 16 31.68 +04 49 31.4 19.9 V G96 – Mt. Lemmon Survey MPS 531587
2014 04 21.42178 15 16 31.40 +04 49 37.1 20.0 V G96 – Mt. Lemmon Survey MPS 531587
2014 04 21.42956 15 16 31.11 +04 49 42.7 19.8 V G96 – Mt. Lemmon Survey MPS 531587
2014 04 21.43734 15 16 30.87 +04 49 48.1 19.7 V G96 – Mt. Lemmon Survey MPS 531587
2014 05 04.39682 15 08 06.091 +07 11 36.48 19.9 w F51 – Pan-STARRS 1, Haleakala MPS 514083
2014 05 04.40882 15 08 05.559 +07 11 43.42 19.9 w F51 – Pan-STARRS 1, Haleakala MPS 514083
2014 05 04.42082 15 08 05.018 +07 11 50.39 20.1 w F51 – Pan-STARRS 1, Haleakala MPS 514083
2014 05 04.43286 15 08 04.484 +07 11 57.38 20.2 w F51 – Pan-STARRS 1, Haleakala MPS 514083
2014 05 08.36680 15 05 15.637 +07 47 53.23 19.6 i F51 – Pan-STARRS 1, Haleakala MPS 514083
2014 05 08.37952 15 05 15.062 +07 47 59.93 19.7 i F51 – Pan-STARRS 1, Haleakala MPS 514083
2014 05 08.39183 15 05 14.508 +07 48 06.11 19.9 i F51 – Pan-STARRS 1, Haleakala MPS 514083
2015 07 28.56784 23 55 41.596 +05 33 35.76 20.7 w F52 – Pan-STARRS 2, Haleakala MPS 796557
2015 07 28.57867 23 55 41.606 +05 33 32.97 20.8 w F52 – Pan-STARRS 2, Haleakala MPS 796557
2015 07 28.60067 23 55 41.610 +05 33 27.79 20.9 w F52 – Pan-STARRS 2, Haleakala MPS 796557
2015 07 30.52260 23 55 43.135 +05 25 25.54 20.6 i F51 – Pan-STARRS 1, Haleakala MPS 796557
2015 07 30.53479 23 55 43.142 +05 25 22.24 20.5 i F51 – Pan-STARRS 1, Haleakala MPS 796557
2015 07 30.54724 23 55 43.097 +05 25 19.07 20.8 i F51 – Pan-STARRS 1, Haleakala MPS 796557
2015 07 30.55961 23 55 43.074 +05 25 15.88 20.6 i F51 – Pan-STARRS 1, Haleakala MPS 796557
2015 08 21.50506 23 50 19.032 +02 58 39.80 20.5 w F51 – Pan-STARRS 1, Haleakala MPS 796557
2015 08 21.51770 23 50 18.659 +02 58 33.08 20.5 w F51 – Pan-STARRS 1, Haleakala MPS 796557
2015 08 21.53031 23 50 18.284 +02 58 26.35 20.5 w F51 – Pan-STARRS 1, Haleakala MPS 796557
2015 08 21.54295 23 50 17.913 +02 58 19.54 20.4 w F51 – Pan-STARRS 1, Haleakala MPS 796557
2015 09 06.34704 23 41 07.85 +00 19 43.9 20.1 V 691 – Steward Observatory, Kitt Peak-Spacewatch MPS 796557
2015 09 06.36582 23 41 07.05 +00 19 31.4 19.9 V 691 – Steward Observatory, Kitt Peak-Spacewatch MPS 796557
2015 09 06.38460 23 41 06.28 +00 19 19.1 20.1 V 691 – Steward Observatory, Kitt Peak-Spacewatch MPS 796557
2015 09 09.43034 23 39 02.528 -00 14 19.03 20.0 w F51 – Pan-STARRS 1, Haleakala MPS 796557
2015 09 09.44251 23 39 02.002 -00 14 27.18 20.0 w F51 – Pan-STARRS 1, Haleakala MPS 796557
2015 09 09.45471 23 39 01.477 -00 14 35.33 20.0 w F51 – Pan-STARRS 1, Haleakala MPS 796557
2015 09 09.65618 23 38 53.21 -00 16 50.7 19.6 R D29 – Purple Mountain Observatory, XuYi Station MPS 796557
2015 09 09.67117 23 38 52.59 -00 17 00.9 19.7 R D29 – Purple Mountain Observatory, XuYi Station MPS 796557
2015 09 09.68616 23 38 51.90 -00 17 10.5 20.8 R D29 – Purple Mountain Observatory, XuYi Station MPS 796557
2015 09 11.32276 23 37 44.01 -00 35 29.5 20.8 r G45 – Space Surveillance Telescope, Atom Site MPS 626904
2015 09 11.32808 23 37 43.81 -00 35 33.6 20.3 r G45 – Space Surveillance Telescope, Atom Site MPS 626904
2015 09 11.33337 23 37 43.61 -00 35 36.4 19.9 r G45 – Space Surveillance Telescope, Atom Site MPS 626904
2015 09 11.33351 23 37 43.56 -00 35 37.1 20.3 r G45 – Space Surveillance Telescope, Atom Site MPS 626904
2015 09 11.33886 23 37 43.35 -00 35 40.3 19.8 r G45 – Space Surveillance Telescope, Atom Site MPS 626904
2015 09 11.34445 23 37 43.15 -00 35 43.6 20.8 r G45 – Space Surveillance Telescope, Atom Site MPS 626904
2015 09 12.32344 23 37 02.31 -00 46 43.6 20.1 r G45 – Space Surveillance Telescope, Atom Site MPS 626904
2015 09 12.32897 23 37 02.04 -00 46 47.9 20.8 r G45 – Space Surveillance Telescope, Atom Site MPS 626904
2015 09 12.33426 23 37 01.82 -00 46 51.9 20.3 r G45 – Space Surveillance Telescope, Atom Site MPS 626904
2015 09 12.34534 23 37 01.34 -00 46 58.7 20.6 r G45 – Space Surveillance Telescope, Atom Site MPS 626904
2015 09 12.39583 23 36 59.376 -00 47 32.11 20.0 w F51 – Pan-STARRS 1, Haleakala MPS 796557
2015 09 12.40758 23 36 58.867 -00 47 40.03 20.0 w F51 – Pan-STARRS 1, Haleakala MPS 796557
2015 09 12.41932 23 36 58.355 -00 47 48.00 19.9 w F51 – Pan-STARRS 1, Haleakala MPS 796557
2015 09 12.43109 23 36 57.840 -00 47 55.91 19.9 w F51 – Pan-STARRS 1, Haleakala MPS 796557
2015 09 14.27433 23 35 40.61 -01 08 42.6 20.2 r G45 – Space Surveillance Telescope, Atom Site MPS 631564
2015 09 14.27877 23 35 40.40 -01 08 45.9 20.1 r G45 – Space Surveillance Telescope, Atom Site MPS 631564
2015 09 14.28409 23 35 40.16 -01 08 49.2 20.2 r G45 – Space Surveillance Telescope, Atom Site MPS 631564
2015 09 14.28918 23 35 39.90 -01 08 52.6 19.5 r G45 – Space Surveillance Telescope, Atom Site MPS 631564
2015 09 14.29427 23 35 39.74 -01 08 56.0 19.6 r G45 – Space Surveillance Telescope, Atom Site MPS 631564
2015 10 17.55259 23 16 53.91 -06 38 55.0 21.0 R D29 – Purple Mountain Observatory, XuYi Station MPS 639181
2015 10 17.58081 23 16 53.27 -06 39 07.5 19.8 R D29 – Purple Mountain Observatory, XuYi Station MPS 639181
2015 11 02.27497 23 14 36.066 -08 10 17.18 20.8 w F51 – Pan-STARRS 1, Haleakala MPS 867564
2015 11 02.28612 23 14 36.080 -08 10 20.17 21.4 w F51 – Pan-STARRS 1, Haleakala MPS 867564
2015 11 02.29730 23 14 36.065 -08 10 22.99 21.0 w F51 – Pan-STARRS 1, Haleakala MPS 867564
2017 12 28.51087 09 09 28.069 -03 29 50.74 21.1 i F51 – Pan-STARRS 1, Haleakala MPS 851608
2017 12 28.52279 09 09 27.818 -03 29 51.22 21.3 i F51 – Pan-STARRS 1, Haleakala MPS 851608
2017 12 28.54660 09 09 27.221 -03 29 51.28 21.2 i F51 – Pan-STARRS 1, Haleakala MPS 851608
2018 01 14.44136 09 00 24.868 -03 05 52.56 21.0 w F51 – Pan-STARRS 1, Haleakala MPS 857802
2018 01 14.46650 09 00 23.808 -03 05 47.72 21.0 w F51 – Pan-STARRS 1, Haleakala MPS 857802
